TimePDT,TemperatureF,Dew PointF,Humidity,Sea Level PressureIn,VisibilityMPH,Wind Direction,Wind SpeedMPH,Gust SpeedMPH,PrecipitationIn,Events,Conditions,WindDirDegrees,DateUTC
12:53 AM,57.9,53.1,84,30.10,10.0,NW,3.5,-,N/A,,Clear,320,2012-10-06 07:53:00
1:53 AM,57.0,53.1,87,30.10,10.0,Calm,Calm,-,N/A,,Clear,0,2012-10-06 08:53:00
2:53 AM,55.9,52.0,87,30.09,10.0,Calm,Calm,-,N/A,,Clear,0,2012-10-06 09:53:00
3:53 AM,54.0,50.0,86,30.08,10.0,Calm,Calm,-,N/A,,Clear,0,2012-10-06 10:53:00
4:53 AM,53.1,48.9,86,30.07,10.0,Calm,Calm,-,N/A,,Clear,0,2012-10-06 11:53:00
5:53 AM,52.0,48.9,89,30.08,10.0,Calm,Calm,-,N/A,,Clear,0,2012-10-06 12:53:00
6:53 AM,52.0,48.9,89,30.09,10.0,Calm,Calm,-,N/A,,Clear,0,2012-10-06 13:53:00
7:53 AM,53.1,50.0,89,30.09,10.0,Calm,Calm,-,N/A,,Partly Cloudy,0,2012-10-06 14:53:00
8:53 AM,55.9,52.0,87,30.09,9.0,Calm,Calm,-,N/A,,Clear,0,2012-10-06 15:53:00
9:53 AM,59.0,53.1,81,30.09,10.0,Calm,Calm,-,N/A,,Clear,0,2012-10-06 16:53:00
10:53 AM,70.0,53.1,55,30.07,10.0,Calm,Calm,-,N/A,,Clear,0,2012-10-06 17:53:00
11:53 AM,72.0,53.1,51,30.06,10.0,West,8.1,-,N/A,,Partly Cloudy,270,2012-10-06 18:53:00
12:53 PM,75.0,51.1,43,30.04,10.0,West,13.8,-,N/A,,Partly Cloudy,270,2012-10-06 19:53:00
1:53 PM,73.0,51.1,46,30.02,10.0,West,16.1,21.9,N/A,,Clear,260,2012-10-06 20:53:00
2:53 PM,73.0,50.0,44,30.01,10.0,WSW,15.0,-,N/A,,Clear,250,2012-10-06 21:53:00
4:53 PM,71.1,50.0,47,30.00,10.0,West,12.7,-,N/A,,Clear,280,2012-10-06 23:53:00
5:53 PM,70.0,48.9,47,29.99,10.0,WSW,11.5,-,N/A,,Clear,250,2012-10-07 00:53:00
6:53 PM,66.9,51.1,57,30.00,10.0,West,11.5,-,N/A,,Clear,260,2012-10-07 01:53:00
7:53 PM,64.0,50.0,60,30.01,10.0,West,4.6,-,N/A,,Clear,260,2012-10-07 02:53:00
9:53 PM,64.0,48.0,56,30.01,10.0,WSW,8.1,-,N/A,,Clear,240,2012-10-07 04:53:00
10:53 PM,63.0,48.0,58,30.01,10.0,WSW,9.2,-,N/A,,Clear,240,2012-10-07 05:53:00
11:53 PM,63.0,46.9,56,30.00,10.0,West,6.9,-,N/A,,Clear,270,2012-10-07 06:53:00